Flag for Switzerland Weather past 2 weeks in Davos, Graubünden, Switzerland

Now
35 °F

Passing clouds.


Feels Like: 30 °F
Forecast: 14 / 41 °F
Wind: 5 mph from Southwest

Location: Chur-Ems

Current Time: Dec 22, 2014 at 1:47:17 AM

Latest Report: Dec 22, 2014 at 1:00 AM


Visibility: 13 mi

Pressure: 30.58 "Hg

Humidity: 71%

Dew point: 26 °F

Location of DavosLocation

Historic Weather in Davos — Graph

°F

Davos temperature yesterday

Maximum temperature yesterday: 45 °F (at 2:00 PM)
Minimum temperature yesterday: 33 °F (at 9:00 PM)
Average temperature yesterday: 40 °F

Past Weeks' High & Low Weather Summary

 TemperatureHumidityPressure
High57 °F (Dec 13, 2:00 PM)97% (Dec 16, 8:00 AM)30.62 "Hg (Dec 16, 8:00 AM)
Low27 °F (Dec 10, 8:00 AM)30% (Dec 12, 3:00 PM)29.90 "Hg (Dec 17, 2:00 PM)
Average41 °F75%30.19 "Hg
* Reported Midnight between Dec 6 and Dec 7 — Midnight between Dec 21 and Dec 22, Davos, Weather by CustomWeather, © 2014

Note: Actual official high and low records may vary slightly from our data, if they occured in-between our weather recording intervals... More about our weather records

Advertising

Davos weather history for previous 24 hours

 ConditionsComfort  
Time TempWeatherWind HumidityBarometerVisibility
12:00 AM
Dec 22
35 °FChilly.6 mph70%30.59 "HgN/A
11:00 PM
Dec 21
35 °FChilly.7 mph74%30.60 "HgN/A
9:00 PM33 °FChilly.5 mph83%30.62 "HgN/A
8:00 PM35 °FChilly.2 mph81%30.61 "HgN/A
7:00 PM35 °FPassing clouds.3 mph80%30.61 "Hg12 mi
6:00 PM37 °FChilly.1 mph78%30.58 "HgN/A
5:00 PM39 °FChilly.1 mph67%30.55 "HgN/A
4:00 PM42 °FPartly sunny.1 mph62%30.54 "Hg16 mi
3:00 PM45 °FCool.1 mph50%30.53 "HgN/A
2:00 PM45 °FCool.2 mph50%30.54 "HgN/A
1:00 PM44 °FPartly sunny.2 mph59%30.56 "Hg16 mi
12:00 PM42 °FQuite cool.1 mph67%30.58 "HgN/A
11:00 AM40 °FChilly.3 mph74%30.60 "HgN/A
10:00 AM39 °FPassing clouds.No wind74%30.60 "Hg12 mi
9:00 AM39 °FChilly.2 mph77%30.60 "HgN/A
8:00 AM39 °FChilly.2 mph75%30.57 "HgN/A
7:00 AM40 °FPassing clouds.7 mph69%30.57 "Hg8 mi
6:00 AM40 °FQuite cool.7 mph68%30.56 "HgN/A
5:00 AM41 °FQuite cool.6 mph65%30.55 "HgN/A
4:00 AM42 °FOvercast.9 mph64%30.53 "Hg8 mi
3:00 AM42 °FQuite cool.12 mph58%30.51 "HgN/A
2:00 AM43 °FQuite cool.7 mph58%30.49 "HgN/A
1:00 AM42 °FOvercast.2 mph63%30.48 "Hg7 mi
Weather by CustomWeather, © 2014

See weather overviewHow to use our weather pages